Change the Weather History Date:

Tuesday, November 8, 2011

  Actual Average Record
Temperature  
Mean Temperature 44 °F -  
Max Temperature 50 °F 57 °F 84 °F (2006)
Min Temperature 39 °F 41 °F 28 °F (2000)
Degree Days  
Heating Degree Days 20    
Moisture  
Dew Point 44 °F    
Average Humidity 94    
Maximum Humidity 100    
Minimum Humidity 87    
Precipitation  
Precipitation 0.20 in - - ()
Sea Level Pressure  
Sea Level Pressure 29.94 in    
Wind  
Wind Speed 11 mph (NNW)    
Max Wind Speed 26 mph    
Max Gust Speed 33 mph    
Visibility 6 miles    
Events Rain , Thunderstorm    
Averages and records for this station are not official NWS values.
T = Trace of Precipitation, MM = Missing Value Source: NWS Daily Summary

Daily Weather History Graph

Daily Weather History Graph

Search for Another Location

Airport or City:

Trip Planner

Search our weather history database for the weather conditions in past years. The results will help you decide how hot, cold, wet, or windy it might be!

Date:

Astronomy

Nov. 08, 2011 Rise Set
Actual Time 7:01 AM CST 5:28 PM CST
Civil Twilight 6:34 AM CST 5:55 PM CST
Nautical Twilight 6:03 AM CST 6:26 PM CST
Astronomical Twilight 5:33 AM CST 6:56 PM CST
Moon 4:07 PM CST (11/8) 5:03 AM CST (11/8)
Length of Visible Light 11h 21m
Length of Day
10h 27m
Waxing Gibbous, 96% of the Moon is Illuminated
Nov 8
Waxing Gibbous
Nov 10
Full
Nov 18
Last Quarter
Nov 25
New
Dec 2
First Quarter

Hourly Weather History & Observations

Time (CST) Temp. Windchill Dew Point Humidity Pressure Visibility Wind Dir Wind Speed Gust Speed Precip Events Conditions
12:15 AM 50.0 °F - 50.0 °F 100% 29.85 in 4.0 mi Calm Calm - N/A   Overcast
12:35 AM 50.0 °F - 50.0 °F 100% 29.84 in 4.0 mi North 8.1 mph - N/A   Overcast
12:55 AM 50.0 °F - 50.0 °F 100% 29.83 in 5.0 mi North 15.0 mph - N/A   Overcast
1:15 AM 50.0 °F - 50.0 °F 100% 29.82 in 5.0 mi North 16.1 mph - N/A   Overcast
1:35 AM 50.0 °F - 50.0 °F 100% 29.83 in 7.0 mi Calm Calm - N/A   Overcast
1:55 AM 50.0 °F - 48.2 °F 94% 29.85 in 7.0 mi NNW 10.4 mph 17.3 mph N/A   Overcast
2:15 AM 48.2 °F - 48.2 °F 100% 29.86 in 7.0 mi NNW 6.9 mph 17.3 mph N/A Thunderstorm Overcast
2:35 AM 48.2 °F - 48.2 °F 100% 29.84 in 4.0 mi NNW 6.9 mph 20.7 mph N/A   Overcast
3:15 AM 46.4 °F 39.8 °F 46.4 °F 100% 29.84 in 2.0 mi NNW 16.1 mph 23.0 mph N/A   Overcast
3:35 AM 46.4 °F 40.7 °F 46.4 °F 100% 29.84 in 2.5 mi NNW 12.7 mph 20.7 mph N/A   Overcast
4:35 AM 46.4 °F - 46.4 °F 100% 29.90 in 1.8 mi Calm Calm - 0.11 in Rain Light Rain
4:55 AM 46.4 °F - 46.4 °F 100% 29.87 in 7.0 mi Calm Calm - 0.20 in Rain Light Rain
6:50 AM 48.2 °F - 48.2 °F 100% 29.83 in 10.0 mi North 13.8 mph - N/A   Overcast
8:50 AM 48.2 °F - 48.2 °F 100% 29.88 in 7.0 mi NNW 11.5 mph - N/A   Overcast
9:50 AM 48.2 °F - 48.2 °F 100% 29.86 in 3.0 mi NNW 17.3 mph - N/A   Overcast
10:50 AM 48.2 °F - 48.2 °F 100% 29.86 in 5.0 mi North 11.5 mph 17.3 mph N/A   Overcast
11:50 AM 48.2 °F - 48.2 °F 100% 29.86 in 5.0 mi North 11.5 mph - N/A   Overcast
1:50 PM 48.2 °F - 48.2 °F 100% 29.85 in 1.5 mi WNW 11.5 mph - N/A   Overcast
3:50 PM 48.2 °F - 46.4 °F 93% 29.87 in 7.0 mi West 13.8 mph 19.6 mph N/A   Overcast
4:50 PM 48.2 °F - 44.6 °F 87% 29.91 in 10.0 mi NW 13.8 mph 19.6 mph N/A   Mostly Cloudy
5:50 PM 46.4 °F 41.5 °F 42.8 °F 87% 29.94 in 10.0 mi NW 10.4 mph 21.9 mph N/A   Overcast
6:50 PM 46.4 °F 41.1 °F 42.8 °F 87% 29.99 in 10.0 mi NW 11.5 mph 23.0 mph N/A   Overcast
7:50 PM 44.6 °F 38.1 °F 41.0 °F 87% 30.03 in 5.0 mi NW 13.8 mph 26.5 mph N/A   Overcast
8:15 PM 42.8 °F 33.8 °F 39.2 °F 87% 30.04 in 4.0 mi NW 21.9 mph 27.6 mph N/A   Overcast
8:35 PM 41.0 °F 31.9 °F 39.2 °F 93% 30.05 in 5.0 mi NW 19.6 mph 26.5 mph N/A   Drizzle
8:55 PM 41.0 °F 31.4 °F 37.4 °F 87% 30.06 in 4.0 mi NW 21.9 mph 32.2 mph N/A   Light Drizzle
9:15 PM 41.0 °F 32.2 °F 37.4 °F 87% 30.07 in 4.0 mi NW 18.4 mph 29.9 mph N/A   Overcast
9:35 PM 41.0 °F 31.6 °F 37.4 °F 87% 30.08 in 10.0 mi NW 20.7 mph 29.9 mph N/A   Overcast
9:55 PM 41.0 °F 31.9 °F 37.4 °F 87% 30.09 in 10.0 mi NW 19.6 mph 24.2 mph N/A   Light Drizzle
10:15 PM 41.0 °F 30.5 °F 37.4 °F 87% 30.11 in 10.0 mi NNW 26.5 mph 33.4 mph N/A   Overcast
10:35 PM 39.2 °F 28.7 °F 35.6 °F 87% 30.11 in 10.0 mi NNW 23.0 mph 32.2 mph N/A   Mostly Cloudy
11:15 PM 39.2 °F 29.8 °F 35.6 °F 87% 30.13 in 10.0 mi NNW 18.4 mph 32.2 mph N/A   Overcast
11:35 PM 39.2 °F 30.5 °F 35.6 °F 87% 30.14 in 10.0 mi NNW 16.1 mph 25.3 mph N/A   Overcast
11:55 PM 39.2 °F 29.8 °F 35.6 °F 87% 30.14 in 10.0 mi NNW 18.4 mph 26.5 mph N/A   Overcast